Weather History for Manhattan, KS

Change the Weather History Date:

Thursday, October 31, 2013

  Actual Average Record
Temperature  
Mean Temperature 52 °F 49 °F  
Max Temperature 64 °F 62 °F 78 °F (2000)
Min Temperature 40 °F 37 °F 26 °F (2006)
Degree Days  
Heating Degree Days 13 16  
Month to date heating degree days 332 328  
Since 1 July heating degree days 352 399  
Cooling Degree Days 0 0  
Month to date cooling degree days 33 24  
Year to date cooling degree days 1513 1361  
Growing Degree Days 4 (Base 50)    
Moisture  
Dew Point 45 °F    
Average Humidity 72    
Maximum Humidity 100    
Minimum Humidity 43    
Precipitation  
Precipitation 0.12 in 0.06 in 1.14 in (1998)
Month to date precipitation 3.74 2.22  
Year to date precipitation 28.06 29.93  
Sea Level Pressure  
Sea Level Pressure 29.67 in    
Wind  
Wind Speed 5 mph (NW)    
Max Wind Speed 15 mph    
Max Gust Speed 23 mph    
Visibility 9 miles    
Events Rain    
T = Trace of Precipitation, MM = Missing Value Source: NWS Daily Summary

Daily Weather History Graph

Daily Weather History Graph

Search for Another Location

Airport:

Trip Planner

Search our weather history database for the weather conditions in past years. The results will help you decide how hot, cold, wet, or windy it might be!

Date:

Astronomy

Oct. 31, 2013 Rise Set
Actual Time 7:53 AM CDT 6:26 PM CDT
Civil Twilight 7:25 AM CDT 6:54 PM CDT
Nautical Twilight 6:54 AM CDT 7:25 PM CDT
Astronomical Twilight 6:23 AM CDT 7:56 PM CDT
Moon 4:45 AM CDT (10/31) 4:44 PM CDT (10/31)
Length of Visible Light 11h 28m
Length of Day
10h 33m
Waning Crescent, 10% of the Moon is Illuminated
Oct 31
Waning Crescent
Nov 3
New
Nov 9
First Quarter
Nov 17
Full
Nov 25
Last Quarter

Hourly Weather History & Observations

Time (CDT) Temp. Windchill Dew Point Humidity Pressure Visibility Wind Dir Wind Speed Gust Speed Precip Events Conditions
12:11 AM 51.8 °F - 50.0 °F 94% 29.76 in 10.0 mi Calm Calm - N/A   Overcast
12:52 AM 50.0 °F - 48.9 °F 96% 29.73 in 10.0 mi NNW 4.6 mph - N/A   Overcast
1:43 AM 50.0 °F - 48.2 °F 94% 29.72 in 10.0 mi North 3.5 mph - N/A   Overcast
1:52 AM 50.0 °F - 48.9 °F 96% 29.73 in 10.0 mi North 3.5 mph - N/A   Overcast
2:52 AM 50.0 °F - 50.0 °F 100% 29.72 in 7.0 mi Calm Calm - N/A   Overcast
3:52 AM 50.0 °F - 50.0 °F 100% 29.71 in 7.0 mi Calm Calm - N/A   Overcast
4:52 AM 50.0 °F - 50.0 °F 100% 29.69 in 4.0 mi NNE 3.5 mph - 0.03 in Rain Light Rain
5:15 AM 48.2 °F - 48.2 °F 100% 29.69 in 6.0 mi NNE 4.6 mph - 0.02 in Rain Light Rain
5:17 AM 48.2 °F - 48.2 °F 100% 29.69 in 6.0 mi NNE 4.6 mph - 0.02 in Rain Light Rain
5:28 AM 48.2 °F - 48.2 °F 100% 29.68 in 6.0 mi NE 6.9 mph - 0.03 in Rain Light Rain
5:52 AM 48.0 °F - 46.0 °F 93% 29.67 in 8.0 mi NE 8.1 mph - 0.06 in Rain Light Rain
6:01 AM 46.4 °F 42.9 °F 46.4 °F 100% 29.65 in 8.0 mi NNE 6.9 mph - 0.00 in Rain Light Rain
6:52 AM 46.9 °F - 46.0 °F 97% 29.68 in 7.0 mi North 4.6 mph - 0.02 in Rain Light Rain
7:52 AM 46.0 °F 44.8 °F 44.1 °F 93% 29.67 in 10.0 mi NNW 3.5 mph - 0.01 in   Overcast
8:52 AM 46.0 °F 41.9 °F 44.1 °F 93% 29.73 in 10.0 mi West 8.1 mph - N/A   Overcast
9:52 AM 46.0 °F 43.9 °F 44.1 °F 93% 29.67 in 10.0 mi NNW 4.6 mph - 0.00 in   Scattered Clouds
10:52 AM 51.1 °F - 43.0 °F 74% 29.66 in 10.0 mi Variable 3.5 mph - N/A   Clear
11:52 AM 54.0 °F - 44.1 °F 69% 29.65 in 10.0 mi Variable 3.5 mph - N/A   Clear
12:52 PM 57.0 °F - 44.1 °F 62% 29.63 in 10.0 mi Variable 3.5 mph - N/A   Overcast
1:52 PM 59.0 °F - 45.0 °F 60% 29.60 in 10.0 mi West 9.2 mph - N/A   Partly Cloudy
2:52 PM 61.0 °F - 43.0 °F 52% 29.58 in 10.0 mi WSW 11.5 mph 19.6 mph N/A   Clear
3:52 PM 63.0 °F - 42.1 °F 46% 29.58 in 10.0 mi WNW 12.7 mph 19.6 mph N/A   Scattered Clouds
4:52 PM 63.0 °F - 39.0 °F 41% 29.59 in 10.0 mi West 8.1 mph 18.4 mph N/A   Scattered Clouds
5:52 PM 61.0 °F - 39.0 °F 44% 29.61 in 10.0 mi WNW 5.8 mph - N/A   Clear
6:52 PM 53.1 °F - 39.9 °F 61% 29.63 in 10.0 mi WSW 4.6 mph - N/A   Clear
7:52 PM 51.1 °F - 39.9 °F 66% 29.64 in 10.0 mi WSW 3.5 mph - N/A   Clear
8:52 PM 44.1 °F - 41.0 °F 89% 29.63 in 10.0 mi Calm Calm - N/A   Clear
9:52 PM 44.1 °F - 39.9 °F 85% 29.65 in 10.0 mi Calm Calm - N/A   Clear
10:52 PM 46.9 °F - 37.9 °F 71% 29.68 in 10.0 mi West 5.8 mph - N/A   Clear
11:52 PM 46.9 °F - 37.9 °F 71% 29.69 in 10.0 mi West 5.8 mph - N/A   Clear